weather.gov     
National Weather Service

Terminal Aerodrome Forecast
NWS Homepage
This page is being discontinued on March 12, 2014.
The same data is available at this site. Please update your bookmarks.
Thank you, and we apologize for the inconvenience.
Please send an email to SR-SRH.Webmaster@noaa.gov with any concerns.


Current Version
Previous Version:    01  02  03  04  05  06  07  08  09  10  11  12  13  14  15  16  17  18  19  20  21  22  23  24  25  26  27  28  29  30  
   31  
[Printable]
443
FTUS42 KILM 201700 CCB
TAFCRE
TAF COR
KCRE 201747Z 2018/2118 03010G17KT P6SM VCSH SCT030 BKN100
      TEMPO 2018/2022 5SM -RA BKN030
     FM202200 03009KT 5SM RA SCT010 OVC025
     FM210500 02010KT 6SM -RA BKN020
     FM211200 34012KT P6SM VCSH BKN030=


U.S. Dept. of Commerce
NOAA National Weather Service
1325 East West Highway
Silver Spring, MD 20910
E-mail: w-nws.webmaster@noaa.gov
Page last modified: May 16, 2007
NATIONAL WEATHER SERVICE: for Safety, for Work, for Fun - FOR LIFE